Regional Weather Roundup
Issued by NWS Columbia, SC

Home | Current Version | Previous Version | Text Only | Print | Product List | Glossary On
Versions: 1 2 3 4 5 6 7 8 9 10 11 12 13 14 15 16 17 18 19 20 21 22 23 24 25 26 27
000
ASUS42 KCAE 212010
RWRCAE
REGIONAL WEATHER ROUNDUP
NATIONAL WEATHER SERVICE COLUMBIA SC
400 PM EDT SAT APR 21 2018

NOTE: "FAIR" INDICATES FEW OR NO CLOUDS BELOW 12,000 FEET WITH NO
SIGNIFICANT WEATHER AND/OR OBSTRUCTIONS TO VISIBILITY.

NOT ALL STATIONS ARE QUALITY CONTROLLED BY THE NATIONAL
WEATHER SERVICE. USE DATA WITH CAUTION...ESPECIALLY
DEWPOINT OBSERVATIONS.

SCZ001>056-GAZ040-063>065-077-212100-
...UPSTATE SOUTH CAROLINA...

CITY           SKY/WX    TMP DP  RH WIND       PRES   REMARKS
ANDERSON       FAIR      70  35  27 VRB6      30.30F
LIBERTY        FAIR      69  33  25 S3        30.30F
SPARTANBURG    FAIR      68  30  24 E3        30.31F
CLEMSON        FAIR      68  32  26 NE3       30.32F
GREENVILLE     FAIR      70  33  25 VRB6      30.32F
GREENWOOD      FAIR      70  38  31 VRB5      30.31F
GREER          FAIR      69  32  25 CALM      30.32F
ROCK HILL      FAIR      70  36  28 VRB7      30.32F
CHESTER        FAIR      70  30  23 CALM      30.32F
LAURENS        FAIR      70  32  24 SE6       30.30F


...CENTRAL SOUTH CAROLINA...

CITY           SKY/WX    TMP DP  RH WIND       PRES   REMARKS
COLUMBIA APT   FAIR      73  33  23 SE6       30.30F
COLUMBIA OWENS FAIR      73  31  21 VRB6      30.31F
MCENTIRE ANGB  MOSUNNY   72  31  22 E8        30.31F
ORANGEBURG     FAIR      72  44  36 CALM      30.30F
SUMTER SHAW    FAIR      71  32  23 E6        30.29F
NEWBERRY       FAIR      70  36  28 SE5       30.33F
AIKEN          MOCLDY    72  32  23 SE12      30.33F
BARNWELL       MOCLDY    73  46  38 E7G14     30.29F
MANNING        FAIR      68  41  37 S7        30.31F
CAMDEN         FAIR      72  30  21 E3        30.33F
LANCASTER      FAIR      70  28  21 E3        30.32F
WINNSBORO      FAIR      72  34  25 SE5       30.31F


...EASTERN AND COASTAL SOUTH CAROLINA...

CITY           SKY/WX    TMP DP  RH WIND       PRES   REMARKS
MYRTLE BEACH   FAIR      65  48  54 SE14      30.36F
N MYRTLE BCH   FAIR      64  46  52 SE10G18   30.35F
CONWAY         FAIR      68  45  42 E3        30.34F HAZE
MARION         FAIR      70  36  28 NE5       30.33F
HARTSVILLE     FAIR      70  32  24 SE8       30.32F
FLORENCE       FAIR      72  31  22 S8        30.32F
DARLINGTON     FAIR      71  35  26 E8        30.33F HAZE
CHARLESTON APT FAIR      71  50  47 E16       30.32F
MOUNT PLEASANT FAIR      66  52  59 NE7       30.34S
WALTERBORO     MOCLDY    70  50  49 SE8       30.32F
BEAUFORT       FAIR      70  54  56 E9        30.31


...EASTERN GEORGIA...

CITY           SKY/WX    TMP DP  RH WIND       PRES   REMARKS
AUGUSTA BUSH F PTSUNNY   74  35  24 E7        30.28F
AUGUSTA DANIEL PTSUNNY   73  33  23 E8        30.29F
THOMSON        FAIR      71  34  25 S7        30.33F
WASHINGTON     FAIR      70  36  28 SE7       30.29F
CLAXTON        CLOUDY    72  56  58 E10       30.28S
SYLVANIA       FAIR      72  57  60 SE8       30.30F
STATESBORO     CLOUDY    71  49  46 SE7       30.28F
SAVANNAH       PTSUNNY   71  54  54 E15       30.29F


...SOUTHERN NORTH CAROLINA...

CITY           SKY/WX    TMP DP  RH WIND       PRES   REMARKS
CHARLOTTE      FAIR      69  32  25 NW6       30.32F
MONROE         FAIR      68  35  29 SW6       30.32F
WADESBORO      FAIR      71  32  24 SE9       30.32F
ROCKINGHAM     FAIR      69  35  28 SE8       30.33F
RUTHERFORDTON  FAIR      67  30  24 S6        30.32F
ASHEVILLE      FAIR      66  28  24 SE7       30.31F

$$




USA.gov is the U.S. government's official web portal to all federal, state and local government web resources and services.